Home   Weather   Saint-Pierre   Past weeks
Flag for Saint Pierre and Miquelon

Past Weather in Saint-Pierre, Saint Pierre and Miquelon — Yesterday and Last 2 Weeks

Now
50 °F

Scattered clouds.


Feels Like: 44 °F
Forecast: 43 / 39 °F
Wind: 17 mph from North

Location: Saint-Pierre

Current Time: May 23, 2019 at 1:49:10 pm

Latest Report: May 23, 2019 at 1:00 pm


Visibility: N/A

Pressure: 29.77 "Hg

Humidity: 58%

Dew Point: 36 °F

Location of Saint-PierreLocation

Past Weather in Saint-Pierre — Graph

°F

Saint-Pierre Temperature Yesterday

Maximum temperature yesterday: 45 °F (at 4:00 pm)
Minimum temperature yesterday: 36 °F (at 6:00 am)
Average temperature yesterday: 40 °F

High & Low Weather Summary for the Past Weeks

 TemperatureHumidityPressure
High54 °F (May 19, 3:00 pm)100% (May 8, 8:00 pm)30.21 "Hg (May 8, 8:00 pm)
Low32 °F (May 12, 6:00 am)32% (May 13, 2:00 pm)29.36 "Hg (May 22, 6:00 am)
Average42 °F78%29.84 "Hg
* Reported May 8 12:00 pm — May 23 12:00 pm, Saint-Pierre. Weather by CustomWeather, © 2019

Note: Actual official high and low records may vary slightly from our data, if they occured in-between our weather recording intervals... More about our weather records

Advertising

Saint-Pierre Weather History for the Previous 24 Hours

Scroll right to see more
 ConditionsComfort  
Time TempWeatherWind HumidityBarometerVisibility
12:00 pm
Thu, May 23
48 °FScattered clouds.20 mph58%29.77 "HgN/A
11:00 am48 °FScattered clouds.25 mph58%29.71 "HgN/A
10:00 am46 °FScattered clouds.24 mph62%29.77 "HgN/A
9:00 am45 °FScattered clouds.15 mph66%29.74 "HgN/A
8:00 am45 °FScattered clouds.20 mph61%29.74 "HgN/A
7:00 am41 °FBroken clouds.21 mph70%29.74 "HgN/A
6:00 am41 °FPartly cloudy.16 mph70%29.71 "HgN/A
12:00 am43 °FPassing clouds.23 mph71%29.71 "HgN/A
11:17 pm
Wed, May 22
43 °FPassing clouds.22 mph71%29.68 "HgN/A
10:00 pm43 °FPassing clouds.30 mph71%29.68 "HgN/A
9:00 pm43 °FBroken clouds.26 mph71%29.68 "HgN/A
8:00 pm43 °FPartly sunny.24 mph71%29.65 "HgN/A
7:00 pm45 °FScattered clouds.26 mph66%29.65 "HgN/A
6:00 pm45 °FPartly sunny.28 mph66%29.62 "HgN/A
5:00 pm45 °FPartly sunny.24 mph71%29.62 "HgN/A
4:00 pm45 °FPartly sunny.28 mph71%29.59 "HgN/A
3:00 pm43 °FPartly sunny.30 mph81%29.56 "HgN/A
2:00 pm41 °FLight rain. Partly sunny.26 mph93%29.53 "HgN/A
Weather by CustomWeather, © 2019

See weather overview